QPF
0.00 0.00 0.00 0.00 0.00 0.00 0.00 0.00 0.00 0.00 0.00 0.00 0.00 0.00 0.00 0.00 0.00 0.00 0.00 0.00 0.00 0.00 0.01 0.01 0.01 0.01 0.01 0.01 0.01 0.01 0.02 0.02 0.02 0.02 0.04 0.06 0.06 0.07 0.06 0.08 0.11 0.13 0.15
0.00 0.00 0.00 0.00 0.00 0.00 0.00 0.00 0.00 0.00 0.00 0.00 0.00 0.00 0.00 0.00 0.00 0.00 0.00 0.00 0.00 0.01 0.01 0.01 0.02 0.02 0.01 0.01 0.01 0.01 0.02 0.03 0.03 0.02 0.04 0.06 0.05 0.06 0.04 0.06 0.09 0.12 0.15
0.01 0.00 0.00 0.00 0.00 0.00 0.00 0.00 0.00 0.00 0.00 0.00 0.00 0.00 0.00 0.00 0.00 0.00 0.00 0.00 0.00 0.01 0.02 0.01 0.01 0.01 0.01 0.01 0.01 0.01 0.02 0.03 0.03 0.03 0.03 0.04 0.04 0.06 0.05 0.04 0.05 0.08 0.11
0.00 0.00 0.00 0.00 0.00 0.00 0.00 0.00 0.00 0.00 0.00 0.00 0.00 0.00 0.00 0.00 0.00 0.00 0.00 0.00 0.00 0.01 0.01 0.02 0.02 0.01 0.01 0.01 0.01 0.01 0.02 0.02 0.03 0.03 0.03 0.03 0.03 0.03 0.04 0.05 0.04 0.07 0.10
0.00 0.00 0.00 0.00 0.00 0.00 0.00 0.00 0.00 0.00 0.00 0.00 0.00 0.00 0.00 0.00 0.00 0.00 0.00 0.00 0.00 0.00 0.01 0.03 0.03 0.02 0.01 0.02 0.02 0.02 0.02 0.02 0.02 0.02 0.03 0.03 0.03 0.02 0.03 0.04 0.04 0.06 0.09
0.00 0.00 0.00 0.00 0.00 0.00 0.00 0.00 0.00 0.00 0.00 0.00 0.00 0.00 0.00 0.00 0.00 0.00 0.01 0.00 0.00 0.01 0.01 0.01 0.01 0.01 0.01 0.02 0.03 0.03 0.02 0.03 0.02 0.02 0.03 0.02 0.02 0.02 0.01 0.02 0.04 0.06 0.08
0.00 0.00 0.00 0.00 0.00 0.00 0.00 0.00 0.00 0.00 0.00 0.00 0.00 0.00 0.00 0.00 0.00 0.00 0.01 0.01 0.01 0.01 0.02 0.01 0.02 0.02 0.01 0.02 0.03 0.03 0.02 0.03 0.02 0.02 0.03 0.03 0.02 0.01 0.01 0.01 0.03 0.04 0.07
0.00 0.00 0.00 0.00 0.00 0.00 0.00 0.00 0.00 0.00 0.00 0.00 0.00 0.00 0.00 0.00 0.00 0.00 0.00 0.00 0.01 0.02 0.02 0.02 0.01 0.01 0.02 0.03 0.03 0.02 0.02 0.01 0.01 0.02 0.03 0.02 0.01 0.01 0.01 0.01 0.01 0.02 0.04
0.00 0.00 0.00 0.00 0.00 0.00 0.00 0.00 0.00 0.00 0.00 0.00 0.00 0.00 0.00 0.00 0.00 0.00 0.00 0.01 0.01 0.01 0.01 0.02 0.01 0.01 0.02 0.03 0.02 0.01 0.01 0.01 0.01 0.01 0.02 0.02 0.01 0.01 0.01 0.01 0.01 0.02 0.03
0.00 0.00 0.00 0.00 0.00 0.00 0.00 0.00 0.00 0.00 0.00 0.00 0.00 0.00 0.00 0.00 0.00 0.00 0.00 0.00 0.00 0.00 0.00 0.01 0.02 0.02 0.02 0.01 0.01 0.01 0.01 0.01 0.01 0.01 0.02 0.02 0.01 0.01 0.01 0.01 0.02 0.01 0.02
0.00 0.00 0.00 0.00 0.00 0.00 0.00 0.00 0.00 0.00 0.00 0.00 0.00 0.00 0.00 0.00 0.00 0.00 0.00 0.00 0.00 0.00 0.00 0.01 0.02 0.02 0.02 0.01 0.01 0.01 0.01 0.02 0.02 0.02 0.03 0.03 0.02 0.02 0.02 0.02 0.02 0.02 0.02
0.00 0.00 0.00 0.00 0.00 0.00 0.00 0.00 0.00 0.00 0.00 0.00 0.00 0.00 0.00 0.00 0.00 0.00 0.00 0.00 0.00 0.00 0.00 0.01 0.01 0.02 0.01 0.01 0.02 0.02 0.02 0.02 0.02 0.03 0.04 0.05 0.05 0.05 0.03 0.02 0.02 0.02 0.01
0.00 0.00 0.00 0.00 0.00 0.00 0.00 0.00 0.00 0.00 0.00 0.00 0.00 0.00 0.00 0.00 0.00 0.00 0.00 0.00 0.00 0.00 0.00 0.00 0.00 0.01 0.02 0.02 0.01 0.03 0.03 0.03 0.02 0.03 0.05 0.06 0.07 0.06 0.04 0.04 0.02 0.02 0.02
0.00 0.00 0.00 0.00 0.00 0.00 0.00 0.00 0.00 0.00 0.00 0.00 0.00 0.00 0.00 0.00 0.00 0.00 0.00 0.00 0.00 0.00 0.00 0.00 0.00 0.01 0.01 0.01 0.01 0.01 0.03 0.04 0.04 0.04 0.05 0.05 0.04 0.03 0.02 0.02 0.02 0.02 0.01
0.00 0.00 0.00 0.00 0.00 0.00 0.00 0.00 0.00 0.00 0.00 0.00 0.00 0.00 0.00 0.00 0.00 0.00 0.00 0.00 0.00 0.00 0.00 0.00 0.00 0.00 0.01 0.01 0.01 0.01 0.02 0.02 0.03 0.03 0.02 0.02 0.02 0.02 0.01 0.01 0.02 0.02 0.01
0.00 0.00 0.00 0.00 0.00 0.00 0.00 0.00 0.00 0.00 0.00 0.00 0.00 0.00 0.00 0.00 0.00 0.00 0.00 0.00 0.00 0.00 0.00 0.00 0.00 0.00 0.00 0.00 0.00 0.00 0.01 0.01 0.01 0.01 0.02 0.01 0.01 0.01 0.01 0.01 0.02 0.02 0.02
0.00 0.00 0.00 0.00 0.00 0.00 0.00 0.00 0.00 0.00 0.00 0.00 0.00 0.00 0.00 0.00 0.00 0.00 0.00 0.00 0.00 0.00 0.00 0.00 0.00 0.00 0.00 0.00 0.00 0.00 0.00 0.00 0.00 0.00 0.00 0.00 0.00 0.00 0.01 0.01 0.01 0.01 0.02
0.00 0.00 0.00 0.00 0.00 0.00 0.00 0.00 0.00 0.00 0.00 0.00 0.00 0.00 0.00 0.00 0.00 0.00 0.00 0.00 0.00 0.00 0.00 0.00 0.00 0.00 0.00 0.00 0.00 0.00 0.00 0.00 0.00 0.00 0.00 0.00 0.00 0.00 0.00 0.01 0.01 0.01 0.01
0.00 0.00 0.00 0.00 0.00 0.00 0.00 0.00 0.00 0.00 0.00 0.00 0.00 0.00 0.00 0.00 0.00 0.00 0.00 0.00 0.00 0.00 0.00 0.00 0.00 0.00 0.00 0.00 0.00 0.00 0.00 0.00 0.00 0.00 0.00 0.00 0.00 0.00 0.00 0.00 0.00 0.00 0.00
0.00 0.00 0.00 0.00 0.00 0.00 0.00 0.00 0.00 0.00 0.00 0.00 0.00 0.00 0.00 0.00 0.00 0.00 0.00 0.00 0.00 0.00 0.00 0.00 0.00 0.00 0.00 0.00 0.00 0.00 0.00 0.00 0.00 0.00 0.00 0.00 0.00 0.00 0.00 0.00 0.00 0.00 0.00
0.00 0.00 0.00 0.00 0.00 0.00 0.00 0.00 0.00 0.00 0.00 0.00 0.00 0.00 0.00 0.00 0.00 0.00 0.00 0.00 0.00 0.00 0.00 0.00 0.00 0.00 0.00 0.00 0.00 0.00 0.00 0.00 0.00 0.00 0.00 0.00 0.00 0.00 0.00 0.00 0.00 0.00 0.00
0.00 0.00 0.00 0.00 0.00 0.00 0.00 0.00 0.00 0.00 0.00 0.00 0.00 0.00 0.00 0.00 0.00 0.00 0.00 0.00 0.00 0.00 0.00 0.00 0.00 0.00 0.00 0.00 0.00 0.00 0.00 0.00 0.00 0.00 0.00 0.00 0.00 0.00 0.00 0.00 0.00 0.01 0.01
0.00 0.00 0.00 0.00 0.00 0.00 0.00 0.00 0.00 0.00 0.00 0.00 0.00 0.00 0.00 0.00 0.00 0.00 0.00 0.00 0.00 0.00 0.00 0.00 0.00 0.00 0.00 0.00 0.00 0.00 0.00 0.00 0.00 0.00 0.00 0.00 0.00 0.00 0.00 0.00 0.00 0.00 0.00
0.00 0.00 0.00 0.00 0.00 0.00 0.00 0.00 0.00 0.00 0.00 0.00 0.00 0.00 0.00 0.00 0.00 0.00 0.00 0.00 0.00 0.00 0.00 0.00 0.00 0.00 0.00 0.00 0.00 0.00 0.00 0.00 0.00 0.00 0.00 0.00 0.00 0.00 0.00 0.00 0.00 0.00 0.00
0.00 0.00 0.00 0.00 0.00 0.00 0.00 0.00 0.00 0.00 0.00 0.00 0.00 0.00 0.00 0.00 0.00 0.00 0.00 0.00 0.00 0.00 0.00 0.00 0.00 0.00 0.00 0.00 0.00 0.00 0.00 0.00 0.00 0.00 0.00 0.00 0.00 0.00 0.00 0.00 0.00 0.00 0.00
0.00 0.00 0.00 0.00 0.00 0.00 0.00 0.00 0.00 0.00 0.00 0.00 0.00 0.00 0.00 0.00 0.00 0.00 0.00 0.00 0.00 0.00 0.00 0.00 0.00 0.00 0.00 0.00 0.00 0.00 0.00 0.00 0.00 0.00 0.00 0.00 0.00 0.00 0.00 0.00 0.00 0.00 0.00
MSLP
1010.54 1010.74 1010.92 1011.05 1011.15 1011.22 1011.31 1011.45 1011.66 1011.95 1012.29 1012.66 1013.00 1013.26 1013.43 1013.47 1013.39 1013.24 1013.04 1012.85 1012.69 1012.59 1012.54 1012.53 1012.53 1012.51 1012.44 1012.31 1012.13 1011.92 1011.72 1011.56 1011.45 1011.42 1011.46 1011.53 1011.63 1011.71 1011.75 1011.74 1011.68 1011.59 1011.49
1010.34 1010.58 1010.78 1010.92 1011.00 1011.04 1011.11 1011.22 1011.43 1011.75 1012.14 1012.57 1012.99 1013.33 1013.54 1013.62 1013.56 1013.40 1013.18 1012.96 1012.78 1012.67 1012.62 1012.64 1012.67 1012.67 1012.63 1012.52 1012.35 1012.14 1011.93 1011.75 1011.63 1011.59 1011.61 1011.68 1011.76 1011.83 1011.85 1011.82 1011.73 1011.60 1011.47
1010.10 1010.37 1010.61 1010.76 1010.85 1010.88 1010.93 1011.03 1011.24 1011.56 1011.99 1012.46 1012.93 1013.32 1013.59 1013.70 1013.66 1013.50 1013.28 1013.05 1012.86 1012.75 1012.71 1012.73 1012.78 1012.81 1012.79 1012.70 1012.54 1012.34 1012.14 1011.96 1011.84 1011.79 1011.81 1011.88 1011.96 1012.01 1012.02 1011.96 1011.84 1011.68 1011.52
1009.81 1010.12 1010.40 1010.59 1010.70 1010.75 1010.79 1010.89 1011.09 1011.41 1011.83 1012.32 1012.81 1013.24 1013.54 1013.68 1013.67 1013.54 1013.33 1013.11 1012.92 1012.81 1012.77 1012.80 1012.86 1012.90 1012.90 1012.83 1012.69 1012.52 1012.33 1012.17 1012.06 1012.03 1012.06 1012.12 1012.20 1012.25 1012.24 1012.16 1012.03 1011.85 1011.66
1009.49 1009.84 1010.16 1010.41 1010.56 1010.64 1010.69 1010.79 1010.97 1011.27 1011.67 1012.15 1012.64 1013.07 1013.39 1013.56 1013.59 1013.48 1013.31 1013.11 1012.95 1012.84 1012.82 1012.85 1012.91 1012.96 1012.97 1012.92 1012.81 1012.66 1012.50 1012.37 1012.29 1012.27 1012.31 1012.39 1012.46 1012.51 1012.50 1012.42 1012.27 1012.09 1011.88
1009.16 1009.53 1009.90 1010.21 1010.41 1010.53 1010.61 1010.70 1010.87 1011.13 1011.50 1011.94 1012.40 1012.82 1013.15 1013.34 1013.40 1013.35 1013.21 1013.06 1012.92 1012.84 1012.83 1012.86 1012.92 1012.98 1012.99 1012.96 1012.88 1012.76 1012.63 1012.54 1012.49 1012.49 1012.55 1012.64 1012.72 1012.77 1012.76 1012.69 1012.55 1012.37 1012.18
1008.81 1009.20 1009.61 1009.97 1010.24 1010.40 1010.51 1010.61 1010.75 1010.97 1011.29 1011.68 1012.09 1012.49 1012.82 1013.04 1013.14 1013.13 1013.05 1012.95 1012.86 1012.80 1012.80 1012.84 1012.90 1012.96 1012.98 1012.96 1012.90 1012.82 1012.73 1012.66 1012.64 1012.67 1012.74 1012.84 1012.93 1012.99 1013.00 1012.95 1012.84 1012.68 1012.51
1008.45 1008.84 1009.29 1009.69 1010.01 1010.22 1010.36 1010.46 1010.59 1010.77 1011.04 1011.37 1011.75 1012.12 1012.44 1012.68 1012.82 1012.87 1012.85 1012.80 1012.75 1012.73 1012.75 1012.80 1012.86 1012.91 1012.94 1012.94 1012.90 1012.84 1012.78 1012.74 1012.74 1012.78 1012.86 1012.97 1013.07 1013.15 1013.18 1013.16 1013.10 1012.99 1012.85
1008.08 1008.47 1008.92 1009.36 1009.71 1009.96 1010.12 1010.24 1010.35 1010.51 1010.74 1011.03 1011.37 1011.72 1012.04 1012.29 1012.47 1012.58 1012.62 1012.63 1012.62 1012.63 1012.67 1012.72 1012.79 1012.84 1012.88 1012.88 1012.86 1012.82 1012.78 1012.76 1012.78 1012.83 1012.91 1013.02 1013.13 1013.22 1013.29 1013.32 1013.31 1013.26 1013.18
1007.72 1008.08 1008.53 1008.97 1009.33 1009.60 1009.78 1009.90 1010.02 1010.16 1010.37 1010.64 1010.96 1011.31 1011.64 1011.92 1012.14 1012.29 1012.38 1012.43 1012.47 1012.51 1012.56 1012.62 1012.69 1012.75 1012.79 1012.81 1012.80 1012.78 1012.76 1012.75 1012.76 1012.81 1012.89 1012.99 1013.10 1013.22 1013.32 1013.40 1013.45 1013.47 1013.47
1007.37 1007.69 1008.10 1008.51 1008.86 1009.12 1009.31 1009.44 1009.56 1009.72 1009.94 1010.21 1010.54 1010.90 1011.25 1011.56 1011.81 1012.01 1012.14 1012.23 1012.30 1012.36 1012.42 1012.50 1012.57 1012.64 1012.69 1012.72 1012.73 1012.73 1012.71 1012.71 1012.72 1012.75 1012.81 1012.90 1013.01 1013.14 1013.27 1013.40 1013.52 1013.61 1013.68
1007.06 1007.31 1007.64 1007.99 1008.29 1008.52 1008.70 1008.84 1008.99 1009.17 1009.42 1009.73 1010.09 1010.48 1010.86 1011.21 1011.50 1011.72 1011.89 1012.01 1012.10 1012.18 1012.25 1012.33 1012.41 1012.49 1012.56 1012.61 1012.65 1012.66 1012.66 1012.65 1012.65 1012.67 1012.71 1012.78 1012.88 1013.01 1013.16 1013.33 1013.50 1013.66 1013.80
1006.79 1006.95 1007.18 1007.42 1007.64 1007.82 1007.97 1008.11 1008.29 1008.52 1008.81 1009.18 1009.59 1010.02 1010.45 1010.83 1011.16 1011.42 1011.61 1011.75 1011.85 1011.94 1012.03 1012.12 1012.22 1012.31 1012.41 1012.49 1012.54 1012.58 1012.59 1012.59 1012.58 1012.58 1012.60 1012.65 1012.73 1012.85 1013.01 1013.19 1013.40 1013.61 1013.80
1006.58 1006.62 1006.72 1006.83 1006.93 1007.03 1007.14 1007.28 1007.48 1007.75 1008.11 1008.54 1009.01 1009.50 1009.98 1010.41 1010.77 1011.05 1011.27 1011.42 1011.54 1011.64 1011.74 1011.85 1011.97 1012.09 1012.21 1012.32 1012.41 1012.47 1012.50 1012.50 1012.50 1012.48 1012.48 1012.50 1012.56 1012.66 1012.81 1013.00 1013.22 1013.46 1013.68
1006.44 1006.34 1006.27 1006.23 1006.21 1006.21 1006.26 1006.38 1006.60 1006.91 1007.32 1007.81 1008.35 1008.89 1009.42 1009.89 1010.28 1010.60 1010.84 1011.02 1011.16 1011.28 1011.40 1011.52 1011.67 1011.82 1011.97 1012.11 1012.23 1012.31 1012.37 1012.39 1012.38 1012.37 1012.35 1012.35 1012.38 1012.46 1012.58 1012.76 1012.97 1013.20 1013.43
1006.38 1006.12 1005.89 1005.68 1005.51 1005.41 1005.38 1005.47 1005.69 1006.02 1006.47 1007.00 1007.58 1008.18 1008.74 1009.25 1009.68 1010.03 1010.30 1010.51 1010.68 1010.83 1010.98 1011.13 1011.30 1011.48 1011.66 1011.83 1011.98 1012.09 1012.17 1012.21 1012.22 1012.21 1012.19 1012.18 1012.19 1012.24 1012.33 1012.48 1012.66 1012.87 1013.08
1006.42 1006.00 1005.59 1005.22 1004.92 1004.70 1004.59 1004.63 1004.81 1005.14 1005.60 1006.14 1006.74 1007.36 1007.95 1008.48 1008.95 1009.33 1009.65 1009.90 1010.12 1010.31 1010.49 1010.69 1010.88 1011.09 1011.29 1011.48 1011.65 1011.79 1011.89 1011.95 1011.99 1011.99 1011.98 1011.97 1011.98 1012.01 1012.07 1012.18 1012.32 1012.49 1012.68
1006.57 1006.00 1005.44 1004.93 1004.49 1004.16 1003.97 1003.93 1004.06 1004.34 1004.76 1005.27 1005.85 1006.45 1007.04 1007.60 1008.09 1008.52 1008.88 1009.20 1009.47 1009.72 1009.96 1010.18 1010.41 1010.63 1010.85 1011.05 1011.23 1011.39 1011.51 1011.60 1011.66 1011.70 1011.72 1011.73 1011.74 1011.77 1011.82 1011.90 1012.00 1012.13 1012.28
1006.84 1006.15 1005.48 1004.85 1004.30 1003.87 1003.58 1003.45 1003.49 1003.68 1004.01 1004.45 1004.96 1005.51 1006.07 1006.62 1007.13 1007.60 1008.03 1008.41 1008.76 1009.07 1009.37 1009.64 1009.90 1010.13 1010.36 1010.56 1010.74 1010.91 1011.04 1011.16 1011.26 1011.34 1011.40 1011.45 1011.50 1011.54 1011.59 1011.66 1011.74 1011.83 1011.94
1007.24 1006.47 1005.71 1005.01 1004.37 1003.85 1003.47 1003.22 1003.14 1003.21 1003.40 1003.71 1004.11 1004.57 1005.07 1005.59 1006.10 1006.61 1007.10 1007.56 1007.98 1008.38 1008.74 1009.06 1009.35 1009.60 1009.82 1010.02 1010.20 1010.36 1010.51 1010.66 1010.79 1010.93 1011.05 1011.16 1011.26 1011.34 1011.42 1011.49 1011.56 1011.63 1011.72
1007.75 1006.94 1006.15 1005.40 1004.71 1004.11 1003.62 1003.26 1003.03 1002.93 1002.96 1003.10 1003.34 1003.67 1004.08 1004.54 1005.05 1005.58 1006.12 1006.66 1007.17 1007.65 1008.08 1008.46 1008.78 1009.04 1009.27 1009.45 1009.62 1009.78 1009.95 1010.12 1010.30 1010.50 1010.69 1010.87 1011.04 1011.19 1011.31 1011.41 1011.49 1011.57 1011.64
1008.33 1007.53 1006.73 1005.97 1005.25 1004.59 1004.01 1003.52 1003.12 1002.84 1002.67 1002.61 1002.67 1002.85 1003.13 1003.52 1003.99 1004.53 1005.12 1005.73 1006.33 1006.89 1007.40 1007.83 1008.19 1008.48 1008.71 1008.89 1009.06 1009.22 1009.40 1009.60 1009.83 1010.08 1010.35 1010.62 1010.87 1011.09 1011.28 1011.43 1011.55 1011.64 1011.72
1008.91 1008.15 1007.38 1006.63 1005.89 1005.19 1004.52 1003.91 1003.36 1002.89 1002.51 1002.24 1002.11 1002.11 1002.25 1002.55 1002.97 1003.51 1004.13 1004.79 1005.46 1006.11 1006.69 1007.19 1007.60 1007.92 1008.17 1008.37 1008.54 1008.71 1008.90 1009.14 1009.42 1009.73 1010.07 1010.42 1010.76 1011.06 1011.33 1011.54 1011.70 1011.83 1011.93
1009.42 1008.71 1007.99 1007.27 1006.54 1005.80 1005.07 1004.34 1003.65 1003.00 1002.43 1001.96 1001.63 1001.46 1001.46 1001.64 1002.01 1002.52 1003.15 1003.86 1004.60 1005.32 1005.97 1006.55 1007.02 1007.38 1007.67 1007.89 1008.08 1008.27 1008.49 1008.76 1009.09 1009.46 1009.87 1010.30 1010.71 1011.10 1011.43 1011.71 1011.94 1012.11 1012.24
1009.78 1009.13 1008.46 1007.77 1007.06 1006.31 1005.53 1004.72 1003.90 1003.11 1002.37 1001.73 1001.22 1000.89 1000.75 1000.83 1001.12 1001.59 1002.22 1002.95 1003.74 1004.52 1005.25 1005.89 1006.43 1006.87 1007.21 1007.47 1007.71 1007.93 1008.19 1008.50 1008.86 1009.29 1009.75 1010.24 1010.72 1011.17 1011.58 1011.92 1012.20 1012.42 1012.59
1009.92 1009.32 1008.70 1008.06 1007.37 1006.62 1005.82 1004.96 1004.06 1003.16 1002.30 1001.51 1000.86 1000.39 1000.12 1000.10 1000.30 1000.73 1001.33 1002.07 1002.88 1003.72 1004.52 1005.24 1005.86 1006.37 1006.79 1007.12 1007.41 1007.69 1007.99 1008.34 1008.74 1009.20 1009.70 1010.23 1010.76 1011.27 1011.73 1012.13 1012.46 1012.73 1012.94
Thickness
5749 5749 5748 5745 5741 5738 5735 5731 5727 5724 5720 5715 5709 5705 5701 5699 5697 5695 5692 5690 5687 5684 5682 5679 5677 5676 5675 5674 5675 5676 5678 5680 5683 5685 5687 5693 5700 5704 5709 5712 5716 5720 5724
5744 5744 5744 5742 5740 5736 5734 5730 5727 5723 5719 5715 5710 5705 5701 5697 5695 5692 5690 5687 5685 5682 5680 5677 5674 5673 5672 5671 5671 5672 5672 5674 5678 5678 5678 5680 5687 5695 5703 5708 5711 5715 5719
5745 5743 5741 5740 5738 5736 5734 5732 5727 5723 5719 5715 5710 5705 5699 5695 5692 5689 5686 5685 5683 5680 5678 5675 5673 5671 5669 5668 5668 5669 5669 5669 5672 5675 5674 5673 5675 5683 5694 5701 5706 5710 5714
5748 5744 5742 5739 5738 5737 5735 5732 5727 5723 5719 5714 5709 5703 5696 5691 5689 5687 5684 5683 5681 5679 5676 5674 5672 5669 5667 5666 5666 5668 5668 5668 5667 5670 5674 5675 5677 5678 5682 5692 5699 5705 5709
5749 5746 5744 5742 5740 5738 5735 5731 5727 5722 5718 5714 5709 5703 5697 5693 5690 5687 5684 5681 5680 5677 5675 5673 5671 5668 5666 5666 5666 5666 5667 5667 5666 5667 5669 5671 5674 5677 5677 5680 5688 5696 5703
5749 5747 5745 5742 5739 5737 5734 5730 5726 5721 5718 5714 5709 5703 5698 5693 5689 5686 5682 5680 5677 5676 5674 5672 5670 5668 5666 5666 5666 5666 5666 5666 5666 5667 5668 5669 5670 5672 5675 5676 5681 5686 5694
5747 5744 5741 5738 5736 5735 5733 5729 5725 5721 5717 5713 5708 5704 5699 5695 5690 5686 5682 5679 5676 5674 5673 5672 5670 5668 5667 5666 5666 5665 5665 5666 5665 5666 5667 5669 5671 5673 5675 5675 5677 5681 5687
5746 5745 5743 5740 5738 5736 5733 5729 5725 5721 5717 5713 5709 5705 5701 5696 5691 5688 5684 5680 5677 5676 5675 5672 5670 5669 5668 5667 5666 5665 5665 5665 5665 5666 5667 5667 5670 5672 5674 5675 5675 5675 5679
5746 5745 5743 5741 5739 5736 5733 5730 5726 5721 5717 5713 5709 5705 5701 5697 5693 5689 5686 5683 5680 5678 5676 5673 5672 5670 5668 5667 5666 5664 5664 5664 5665 5665 5666 5667 5669 5671 5673 5675 5676 5674 5672
5746 5745 5743 5742 5740 5738 5735 5731 5727 5723 5719 5714 5710 5707 5702 5698 5694 5690 5687 5684 5682 5679 5677 5674 5672 5671 5669 5668 5666 5665 5664 5664 5664 5665 5665 5666 5667 5669 5671 5673 5675 5675 5674
5746 5745 5744 5743 5740 5737 5734 5730 5727 5723 5719 5715 5711 5707 5703 5699 5695 5691 5688 5686 5683 5680 5678 5675 5673 5671 5669 5668 5666 5665 5664 5664 5663 5664 5664 5665 5666 5667 5669 5671 5672 5673 5673
5747 5746 5744 5741 5738 5735 5733 5730 5726 5723 5720 5716 5712 5708 5704 5700 5696 5692 5689 5687 5684 5682 5679 5676 5674 5672 5670 5668 5666 5665 5664 5663 5662 5663 5663 5663 5665 5665 5667 5668 5669 5670 5672
5744 5742 5740 5738 5737 5735 5732 5730 5727 5724 5720 5716 5712 5707 5703 5700 5696 5693 5690 5688 5685 5682 5680 5677 5675 5672 5670 5668 5667 5665 5664 5663 5662 5662 5662 5662 5663 5663 5664 5665 5666 5668 5670
5741 5739 5737 5736 5736 5735 5732 5730 5727 5724 5720 5716 5711 5707 5704 5701 5697 5694 5691 5688 5686 5683 5680 5678 5676 5673 5672 5670 5668 5666 5664 5663 5662 5662 5661 5662 5662 5662 5663 5663 5664 5665 5665
5736 5736 5735 5734 5733 5732 5731 5729 5726 5723 5720 5715 5711 5708 5705 5701 5698 5694 5691 5689 5686 5684 5681 5678 5676 5674 5672 5671 5668 5666 5665 5663 5661 5661 5661 5662 5662 5663 5663 5664 5663 5663 5662
5733 5734 5734 5733 5732 5731 5730 5728 5726 5723 5720 5715 5712 5709 5705 5701 5697 5694 5691 5688 5685 5683 5680 5678 5675 5674 5673 5673 5670 5667 5665 5662 5661 5660 5660 5660 5661 5662 5663 5664 5664 5664 5662
5729 5730 5732 5732 5732 5732 5731 5728 5727 5723 5718 5715 5712 5708 5704 5701 5697 5695 5691 5687 5685 5682 5679 5677 5675 5673 5673 5673 5671 5669 5665 5662 5660 5659 5659 5660 5660 5660 5660 5661 5662 5662 5662
5725 5727 5729 5730 5732 5733 5731 5729 5725 5720 5717 5713 5710 5707 5704 5700 5697 5693 5690 5687 5684 5681 5679 5676 5674 5672 5672 5672 5671 5668 5664 5661 5659 5658 5658 5657 5657 5658 5658 5657 5657 5656 5657
5722 5725 5727 5728 5729 5729 5729 5725 5721 5718 5714 5712 5709 5707 5704 5700 5695 5692 5689 5686 5683 5680 5678 5676 5673 5671 5671 5672 5670 5667 5662 5659 5657 5656 5656 5655 5655 5657 5657 5654 5653 5652 5652
5717 5719 5722 5723 5722 5723 5723 5719 5717 5714 5712 5712 5710 5707 5704 5700 5696 5692 5689 5686 5683 5680 5677 5675 5672 5670 5669 5670 5669 5666 5661 5657 5655 5654 5653 5654 5654 5655 5654 5651 5649 5647 5647
5708 5711 5712 5712 5714 5716 5715 5712 5711 5711 5713 5712 5708 5705 5702 5699 5696 5692 5688 5684 5681 5678 5674 5672 5670 5668 5667 5667 5667 5665 5660 5657 5654 5651 5650 5650 5651 5651 5650 5648 5646 5646 5644
5695 5697 5699 5701 5704 5706 5705 5704 5705 5709 5709 5706 5704 5701 5699 5697 5694 5688 5685 5682 5678 5674 5670 5668 5665 5664 5664 5664 5663 5662 5660 5657 5652 5650 5648 5647 5648 5647 5646 5644 5643 5642 5640
5680 5683 5685 5689 5693 5694 5695 5695 5699 5701 5700 5699 5698 5697 5695 5692 5690 5686 5681 5677 5674 5671 5668 5664 5662 5660 5659 5659 5659 5658 5656 5654 5650 5647 5646 5644 5643 5641 5639 5638 5637 5635 5632
5665 5668 5671 5674 5678 5682 5685 5688 5691 5692 5692 5691 5691 5690 5688 5686 5684 5682 5679 5675 5672 5668 5666 5662 5659 5656 5653 5652 5652 5651 5650 5648 5645 5642 5641 5639 5636 5634 5632 5630 5628 5626 5624
5649 5652 5655 5659 5664 5669 5673 5677 5680 5682 5682 5683 5684 5683 5682 5680 5677 5675 5673 5672 5671 5670 5666 5662 5659 5654 5650 5651 5650 5647 5644 5642 5640 5636 5632 5629 5627 5624 5621 5619 5618 5616 5615
5633 5636 5640 5644 5650 5655 5661 5665 5668 5670 5672 5673 5674 5674 5673 5672 5669 5665 5661 5662 5663 5664 5663 5661 5658 5654 5652 5649 5646 5643 5641 5638 5635 5630 5625 5622 5619 5616 5613 5611 5608 5606 5605